Regional Weather Roundup
Issued by NWS

Home | Current Version | Previous Version | Text Only | Print | Product List | Glossary On
Versions: 1 2 3 4 5 6 7 8 9 10 11 12 13 14 15 16 17 18 19 20 21 22 23 24 25 26 27 28 29 30 31 32 33 34 35 36 37 38 39 40 41 42 43 44 45 46 47 48 49 50
833
ASUS45 KBOU 201407
RWRCO

WEATHER ROUNDUP FOR COLORADO
NATIONAL WEATHER SERVICE DENVER/BOULDER CO
800 AM MDT THU JUL 20 2017

NOTE: "FAIR" INDICATES FEW OR NO CLOUDS BELOW 12000 FEET WITH NO
SIGNIFICANT WEATHER AND/OR OBSTRUCTIONS TO VISIBILITY.

COZ001>005-013-030-031-201500-
...NORTHWEST COLORADO...

CITY           SKY/WX    TMP DP  RH WIND       PRES   REMARKS
CRAIG          FAIR      64  54  69 CALM      30.31R
HAYDEN         FAIR      63  52  67 SE6       30.33R
MEEKER         FAIR      62  55  77 CALM      30.32R
RABBIT EARS PA FAIR      55  45  67 CALM      30.62R
STEAMBOAT SPGS FAIR      58  53  83 CALM      30.36R
WALDEN         FAIR      52  46  82 CALM      30.46R
$$

COZ006>008-011-201500-
...WEST CENTRAL VALLEYS...

CITY           SKY/WX    TMP DP  RH WIND       PRES   REMARKS
GRAND JUNCTION FAIR      74  60  61 SE3       30.21R
MONTROSE       FAIR      66  56  70 SE6       30.30S
EAGLE          SUNNY     61  55  82 CALM      30.39R
RIFLE          FAIR      67  58  72 CALM      30.28R
DELTA          FAIR      71  57  61 CALM      30.26R
NUCLA          FAIR      68  52  56 E10       30.32S
$$

COZ017>023-064>068-201500-
...SOUTHWEST COLORADO...

CITY           SKY/WX    TMP DP  RH WIND       PRES   REMARKS
DURANGO        FAIR      67  49  52 NE3       30.36R
CORTEZ         FAIR      72  53  51 N5        30.28R
PAGOSA SPRINGS FAIR      63  50  63 CALM      30.44S
TELLURIDE      FAIR      57  47  69 SE5       30.54F
WOLF CREEK PAS FAIR      50  41  71 SW6       30.79R
$$

COZ009-010-012-014-032>034-037-058>063-201500-
...CENTRAL COLORADO...

CITY           SKY/WX    TMP DP  RH WIND       PRES   REMARKS
ASPEN          FAIR      61  49  64 CALM      30.42R
BUENA VISTA    FAIR      60  48  64 CALM      30.47S
COPPER MTN     FAIR      59  39  47 S7        30.75R
BERTHOUD PASS  FAIR      50  34  53 NW13G25   30.77R
COTTONWOOD PAS FAIR      61  46  59 E6        30.59S
GUNNISON       FAIR      59  49  69 VRB3      30.47R
KREMMLING      FAIR      63  54  72 SE3       30.43R
LEADVILLE      FAIR      52  45  77 CALM      30.59R
MONARCH PASS   FAIR      54  37  54 CALM      30.85R
SALIDA         FAIR      61  50  68 N6        30.51S
SUNLIGHT       FAIR      52  43  71 SW12      30.66S
WILKERSON PASS FAIR      55  39  54 CALM      30.72R
$$

COZ069>075-201500-
...SAN LUIS VALLEY/SANGRE DE CRISTO MOUNTAINS...

CITY           SKY/WX    TMP DP  RH WIND       PRES   REMARKS
ALAMOSA        FAIR      61  50  67 S7        30.43R
DEL NORTE      FAIR      64  48  56 W6        30.47R
LA VETA PASS   NOT AVBL
SAGUACHE         N/A    N/A N/A N/A MISG        N/A
$$

COZ035-036-038>040-201500-
...NORTHERN COLORADO FRONT RANGE...

CITY           SKY/WX    TMP DP  RH WIND       PRES   REMARKS
DENVER INTL AP FAIR      73  56  54 NE5       30.26R
DMNS CITY PARK   N/A     73  56  54 SE6       30.26S
AURORA         MOSUNNY   71  56  57 W3        30.28S
FRONT RANGE AP FAIR      72  57  60 NW3       30.28S
ERIE MUNI ARPT FAIR      72  55  53 CALM      30.25R
BOULDER MUN AP FAIR      73  52  46 CALM      30.25S
CENTENNIAL     FAIR      70  56  61 CALM      30.29R
BROOMFIELD     FAIR      72  54  53 CALM      30.28S
FORT COLLINS   FAIR      72  57  59 VRB5      30.25R
LONGMONT       FAIR      75  56  53 CALM      30.26R
$$

COZ041-046-047-076>085-087-088-201500-
...PIKES PEAK/PALMER DIVIDE AND SOUTHERN FOOTHILLS...

CITY           SKY/WX    TMP DP  RH WIND       PRES   REMARKS
COLO. SPRINGS  FAIR      74  55  51 NW12      30.29F
A. F. ACADEMY  FAIR      69  55  60 N9        30.32S
SCHRIEVER AFB  FAIR      72  52  50 N13       30.29S
CHEYENNE MTN   NOT AVBL
ELLICOTT       FAIR     N/A N/A N/A N13       30.27R
FALCON           N/A     70  50  49 N12G20    30.35S
FORT CARSON    FAIR      73  54  52 N9        30.26S
LIMON          FAIR      70  60  70 NW14      30.23F
MONUMENT HILL  FAIR      64  52  63 NW5       30.38S
CANON CITY     SUNNY     75  55  50 W10       30.23S
WALSENBURG     FAIR      77  50  38 CALM      30.30S
TRINIDAD       FAIR      75  50  41 NW9       30.29R
$$

COZ042>045-048>051-090-091-201500-
...NORTHEAST COLORADO...

CITY           SKY/WX    TMP DP  RH WIND       PRES   REMARKS
GREELEY ARPT   FAIR      71  60  68 CALM      30.23S
AKRON          FAIR      73  58  59 NE9       30.18S
BURLINGTON     FAIR      73  64  73 NW10      30.11S
WRAY           NOT AVBL
YUMA           FAIR      72  55  56 N12       30.13S
STERLING       FAIR      73  63  68 NE7       30.15R
HOLYOKE        FAIR      73  63  68 N9        30.11S
FORT MORGAN    FAIR      73  58  60 N6        30.20S
$$

COZ086-089-092>099-201500-
...SOUTHEAST COLORADO...

CITY           SKY/WX    TMP DP  RH WIND       PRES   REMARKS
PUEBLO         FAIR      80  52  37 W8        30.19R
LA JUNTA       FAIR      77  58  51 W9        30.17R
LAMAR          FAIR      75  60  59 N8        30.08R
SPRINGFIELD      N/A     78  58  49 SW16      30.15R
$$




USA.gov is the U.S. government's official web portal to all federal, state and local government web resources and services.